TIANWANG 1A (TW-1A)
1 40928U 15051D   19246.83434023  .00003926  00000-0  96664-4 0  9999
2 40928  97.1403 276.4253 0011744 144.9381 301.3092 15.41107538221058
LAPAN A2
1 40931U 15052B   19245.40259071  .00000619  00000-0 -28585-5 0  9999
2 40931   5.9960 236.7152 0012298 146.0422 214.0504 14.76612064212474
LQSAT
1 40958U 15057A   19246.72763970 -.00000005  00000-0  68989-5 0  9998
2 40958  97.8929 313.8203 0018019 358.7986   1.3176 14.73087297210141
CHUBUSAT 2
1 41338U 16012B   19246.74204237 +.00000328 +00000-0 +18774-4 0  9994
2 41338 031.0042 015.0985 0013617 146.7830 213.3662 15.00172782194499
CHUBUSAT 3
1 41339U 16012C   19246.76907821 +.00000337 +00000-0 +19418-4 0  9992
2 41339 031.0116 012.9179 0013299 154.0665 206.0639 15.00346826194492
OUFTI-1
1 41458U 16025C   19246.80157429 +.00002645 +00000-0 +13631-3 0  9998
2 41458 098.1010 337.5673 0167394 097.8292 264.1972 15.05978977184174
E-STAR-2
1 41459U 16025D   19246.83653454  .00002085  00000-0  10889-3 0  9991
2 41459  98.1038 337.2242 0169188  99.1074 262.9329 15.05609860184152
AAUSAT 4
1 41460U 16025E   19246.84768700  .00003442  00000-0  17351-3 0  9994
2 41460  98.0963 338.6703 0158464  91.1168 270.8211 15.07557341184299
NUSAT 1
1 41557U 16033B   19246.89735219 +.00001279 +00000-0 +50437-4 0  9993
2 41557 097.4166 333.9491 0014539 031.4980 328.7127 15.27340317181874
BEESAT 4
1 41619U 16040W   19246.70548149 +.00001401 +00000-0 +61949-4 0  9991
2 41619 097.3612 307.4731 0012962 110.4709 249.7921 15.23261240165583
PRATHAM
1 41783U 16059A   19246.74730540 +.00000024 +00000-0 +13800-4 0  9998
2 41783 098.0607 304.6009 0034514 140.1015 220.2733 14.63006610156813
ALSAT 1N
1 41789U 16059G   19246.87521774  .00000062  00000-0  20624-4 0  9999
2 41789  98.0640 306.8890 0029448 128.9655 231.4163 14.64258507156942
NAYIF 1
1 42017U 17008BX  19246.76616877  .00001459  00000-0  60157-4 0  9992
2 42017  97.3974 313.0483 0004589 252.8378 107.2358 15.25674279141671
MAX VALIER SAT
1 42778U 17036P   19246.71053510  .00000894  00000-0  41983-4 0  9999
2 42778  97.3478 302.6558 0011100 320.1643  39.8778 15.22109388121958
